RH
50 34 30 30 27 25 24 21 17 18 18 17 16 15 14 14 13 13 12 12 12 12 12 11 11 11 11 11 12 11 12 11 11 11 11 11 11 10 10 10 10 9
60 42 33 32 29 25 26 25 20 21 22 21 21 20 20 19 18 17 16 15 14 14 14 14 14 14 13 13 13 13 12 12 12 13 12 12 12 11 11 11 10 10
65 49 38 36 32 28 29 30 26 25 25 24 25 25 25 24 24 23 22 21 21 21 20 20 20 20 19 18 18 18 18 18 18 17 17 17 16 15 14 13 13 12
68 55 45 41 39 34 33 37 35 31 30 29 27 28 29 28 28 28 29 28 28 29 29 28 29 28 29 29 28 28 28 27 27 26 25 25 24 23 23 21 20 19
71 64 56 49 46 41 38 43 43 40 37 34 31 31 32 32 32 33 34 34 34 35 35 35 36 36 36 36 36 36 35 34 33 33 32 31 31 30 30 29 29 28
71 68 65 58 54 50 45 47 50 48 46 43 38 36 38 39 38 37 37 38 38 39 39 39 39 38 39 38 38 38 37 37 37 36 35 34 33 33 33 33 33 33
74 75 75 69 62 58 52 52 54 55 53 51 47 46 47 47 46 44 43 43 43 43 43 42 42 41 39 39 38 38 37 37 38 38 38 37 37 36 36 35 35 35
76 80 84 81 74 68 60 55 54 56 56 55 54 54 56 56 54 54 53 53 52 51 49 48 47 45 43 41 40 39 38 37 36 36 37 37 38 39 39 37 37 37
72 75 81 86 84 77 70 61 55 55 56 56 56 58 62 63 62 61 61 59 59 59 58 56 55 53 51 49 46 43 41 40 39 38 39 39 39 41 42 41 39 39
72 72 77 85 85 81 75 69 64 62 62 61 57 57 61 65 67 67 67 66 65 64 64 63 62 60 59 59 57 53 49 47 45 43 42 42 42 43 46 47 46 45
76 76 77 80 83 82 79 77 74 71 68 68 66 64 62 64 68 70 70 69 71 71 69 66 64 63 62 62 62 60 57 54 50 47 45 44 44 45 48 50 51 51
69 72 73 73 74 75 78 79 77 75 72 71 72 72 68 66 67 69 70 71 74 75 74 71 68 66 65 64 63 61 58 55 53 51 49 47 47 47 49 51 52 52
56 59 64 66 68 71 76 78 76 74 72 70 73 75 72 69 69 68 68 72 75 77 79 78 72 69 69 69 68 65 61 57 57 57 55 52 50 49 50 51 52 53
49 50 54 59 63 68 73 75 74 73 68 66 71 75 72 69 67 64 65 68 70 72 77 80 76 74 74 74 73 72 69 66 65 64 63 61 58 55 55 56 57 56
47 51 55 58 61 62 64 66 68 66 61 57 60 64 66 66 66 66 65 65 64 65 69 74 75 75 75 74 73 73 72 71 70 68 69 71 67 60 57 60 62 59
44 48 51 54 56 57 59 59 58 57 55 53 53 55 59 61 62 62 60 57 60 63 67 70 71 70 71 72 72 71 70 71 70 68 70 73 71 64 61 64 64 59
44 46 45 46 50 53 55 56 56 56 56 57 56 56 56 55 54 55 54 53 54 57 62 66 67 66 67 69 69 68 68 67 66 66 67 69 70 69 68 69 67 61
44 45 43 44 47 49 50 52 55 55 56 55 54 53 52 51 50 50 52 51 51 51 53 56 60 62 61 60 59 60 61 60 59 59 59 59 64 69 68 66 65 61
39 40 40 41 42 43 45 48 50 51 51 50 49 50 50 49 48 48 46 45 43 42 42 43 47 51 51 50 49 48 48 48 47 47 47 49 56 63 62 60 59 57
35 36 37 39 40 39 39 39 41 43 45 46 47 48 49 49 48 47 44 41 38 37 36 36 38 40 42 44 45 43 42 41 42 45 49 53 59 64 64 60 56 53
35 34 35 37 38 37 35 33 33 35 37 39 40 41 43 43 43 42 41 40 39 36 33 32 32 32 34 37 40 40 39 39 43 49 53 57 63 69 69 65 57 51
34 34 35 35 36 34 32 31 31 31 31 31 32 34 37 38 38 37 37 36 36 35 33 33 33 32 32 35 37 39 39 40 44 49 50 54 64 71 70 64 57 52
34 35 35 35 35 34 33 31 30 30 29 28 28 29 32 35 37 36 36 35 35 35 35 36 36 34 34 37 39 40 41 42 45 48 49 52 60 65 64 58 52 49
35 36 35 35 37 39 39 36 34 33 31 30 28 27 27 31 35 37 36 36 35 35 35 36 37 37 37 39 40 42 43 42 43 48 51 54 59 61 58 53 49 47
36 35 35 35 37 39 39 40 40 40 37 34 31 30 28 30 34 37 37 36 37 37 37 38 39 39 40 40 42 45 45 46 47 49 53 57 59 58 54 50 47 45
37 36 34 34 35 36 37 40 42 42 41 38 35 32 31 32 36 38 38 38 39 39 40 41 42 42 42 42 45 48 49 51 53 56 57 58 57 54 51 47 44 41